Wind_Speed
8 7 8 9 10 12 14 14 15 16 18 17 12 12 13 11 11 14 16 13 16 15 13 14 15 15 15 17 13 7 11 9 11 10 10 11 10 11 12 11 12 12 11 14 17 17 16 16 16 16 17 15 16 18 20 21 19 18 19 20 20 17 16 16 15 13 13 12 11 11 10 8 8 8 7 6 6 6 7 7 5 6 7 8 9 9
9 9 10 12 14 15 15 14 14 16 17 16 13 13 12 11 11 13 15 13 13 11 10 14 14 14 14 14 14 12 15 13 12 10 12 11 10 11 11 12 13 10 11 16 16 15 16 16 14 15 17 16 16 17 19 21 19 18 19 19 20 18 16 16 13 12 12 11 11 10 9 8 8 7 7 7 7 7 8 7 6 6 7 7 8 9
9 10 12 15 14 14 15 14 14 16 15 12 10 11 10 8 9 12 14 14 12 7 7 13 12 12 13 14 15 14 13 14 13 13 12 11 11 11 12 12 10 6 8 13 15 14 15 15 14 14 16 17 16 17 18 18 18 18 17 17 19 20 17 16 13 11 10 10 9 8 7 8 9 8 8 9 8 8 8 8 7 7 7 7 8 8
7 10 15 16 14 14 15 11 10 12 10 9 8 8 9 8 9 8 6 7 7 5 6 9 8 9 11 13 14 13 12 12 14 14 12 12 10 10 13 11 12 11 13 14 15 13 13 15 17 15 16 17 16 17 18 17 19 20 17 17 19 19 17 16 13 12 11 10 8 8 7 9 11 11 10 10 8 8 8 8 8 8 7 7 8 8
11 12 14 15 16 17 13 7 6 6 6 8 11 10 9 10 12 8 5 6 6 6 5 7 7 7 10 14 12 10 13 12 14 14 13 13 11 11 12 8 10 8 11 14 15 13 12 14 18 17 17 17 15 16 17 18 19 18 17 18 19 18 17 16 14 14 15 12 9 9 8 9 12 11 9 9 8 7 7 8 8 8 7 7 8 7
13 11 9 14 16 13 10 7 9 8 6 8 12 14 15 15 16 12 8 8 4 5 8 6 8 7 9 13 10 9 13 11 11 12 14 13 12 13 11 7 7 2 8 11 14 13 10 10 16 18 16 14 15 16 16 17 17 16 15 16 18 19 19 17 16 16 17 14 10 7 7 8 9 8 7 8 8 7 7 8 8 7 7 7 7 7
10 10 8 10 9 9 9 9 11 11 8 8 10 15 18 19 19 17 9 7 5 5 6 9 9 6 7 11 12 11 12 11 12 13 14 12 12 14 8 9 6 7 10 9 11 10 7 5 10 15 14 10 12 13 15 20 19 17 16 13 16 21 21 19 18 16 18 16 9 6 6 7 7 7 8 8 7 7 8 9 8 7 7 7 7 7
9 12 10 8 7 7 9 9 11 13 9 8 10 13 17 19 18 18 12 6 6 6 6 10 10 7 6 10 14 16 14 13 14 14 12 11 12 9 7 11 6 10 8 9 11 11 7 7 6 14 15 9 10 14 21 26 22 20 18 14 18 22 21 20 18 16 17 15 10 7 6 6 7 8 9 8 7 7 8 8 7 7 7 7 7 7
9 12 10 10 10 8 8 10 12 13 11 10 14 13 13 16 17 15 10 6 6 6 6 8 10 8 7 8 11 13 14 15 14 12 12 12 9 5 10 7 7 10 9 6 9 14 12 9 5 13 16 11 14 20 26 29 26 23 21 18 21 21 20 20 18 16 15 14 12 8 6 7 7 9 9 7 6 8 8 7 7 7 8 7 7 6
8 10 10 10 9 8 10 12 13 14 11 11 14 15 13 13 14 12 8 6 6 6 7 9 9 7 6 7 6 5 10 12 11 11 11 10 4 8 9 4 5 8 7 6 13 14 13 7 2 5 12 15 18 23 28 30 28 24 21 21 22 20 19 18 17 17 16 15 14 9 7 7 10 10 8 7 7 8 7 7 6 7 7 6 6 6
8 8 9 9 8 10 12 12 14 15 13 12 12 12 11 9 9 9 7 7 6 6 8 11 11 8 6 7 6 6 9 9 8 10 10 8 6 8 7 5 5 9 5 14 19 17 13 14 13 11 17 18 18 22 26 28 28 25 21 23 22 19 18 17 16 17 16 17 16 11 8 9 12 10 9 9 8 7 7 6 6 6 6 6 7 6
11 6 6 7 8 11 12 11 12 13 12 10 9 7 7 6 7 7 7 6 6 6 9 12 14 11 7 6 4 3 6 8 8 8 10 11 9 9 7 6 9 8 7 14 16 16 12 14 17 17 20 19 18 25 29 28 28 26 25 26 23 19 19 18 17 17 16 17 16 11 9 11 12 10 10 10 9 8 7 7 6 6 6 7 7 7
11 9 8 8 10 13 12 9 7 7 8 8 7 7 7 5 6 6 5 6 6 7 9 11 11 9 6 3 1 3 2 5 9 7 9 10 10 11 10 9 9 6 9 12 13 13 10 10 12 13 18 26 28 28 33 35 33 30 29 29 27 24 22 20 18 17 16 16 14 10 12 14 13 11 10 10 9 9 8 7 7 7 7 8 8 8
8 9 11 11 9 12 12 8 6 6 8 9 8 7 7 5 5 6 6 6 7 8 10 8 4 5 4 2 5 8 9 4 1 4 6 6 9 11 10 9 7 8 11 12 11 11 9 11 14 13 15 23 27 24 26 31 33 35 35 33 31 29 28 25 22 19 17 15 12 11 15 16 14 12 10 10 9 9 8 7 7 7 7 8 8 9
9 8 10 11 8 11 13 11 9 7 8 10 9 8 7 5 4 5 5 5 4 5 7 7 4 3 4 4 7 10 11 9 7 7 8 6 6 7 8 7 7 11 12 11 9 10 11 13 17 14 11 16 19 18 19 21 22 25 30 33 34 34 33 30 26 23 19 15 12 13 15 15 14 13 11 10 9 8 7 7 6 6 7 9 9 9
10 8 9 14 11 12 15 14 12 9 6 7 9 9 7 5 4 3 2 1 1 3 4 5 3 2 4 4 6 8 9 8 8 9 11 12 11 9 8 8 10 12 11 10 9 9 11 15 17 13 8 9 11 12 15 18 16 15 19 25 30 32 33 31 30 28 22 16 15 16 16 15 14 14 12 11 9 8 7 6 5 5 7 10 10 10
8 7 6 13 14 14 14 13 12 11 5 2 6 8 7 7 5 3 3 3 2 2 3 2 1 4 6 3 4 7 8 9 9 10 12 11 11 12 11 10 11 12 12 12 10 8 9 13 16 15 12 12 12 13 15 18 20 22 23 24 25 27 28 28 30 29 24 21 20 19 18 16 15 15 13 12 11 9 8 7 5 6 9 11 11 11
5 5 4 7 12 14 13 12 14 13 7 4 4 4 5 7 6 3 3 3 3 5 5 5 5 5 5 4 6 10 9 11 12 12 12 9 9 11 11 11 12 13 13 13 10 7 8 11 13 14 14 14 17 18 17 17 20 23 22 22 23 25 26 27 28 28 25 24 24 22 20 18 16 15 14 13 13 11 9 8 7 7 9 11 11 11
4 5 4 8 11 11 12 11 11 12 13 10 4 0 2 4 4 4 2 4 5 5 5 7 9 5 0 1 7 11 10 11 11 11 10 8 8 10 11 12 13 12 11 10 8 7 7 10 11 13 12 11 15 18 16 15 16 16 16 19 20 19 19 20 24 25 24 23 24 23 21 18 17 15 15 15 13 12 10 9 8 8 9 11 11 11
4 4 4 7 10 7 9 8 7 8 11 11 6 3 4 3 3 3 2 4 5 4 5 8 8 3 6 5 5 12 12 10 9 9 9 7 7 9 9 10 10 10 9 6 6 6 6 9 12 13 13 11 13 17 17 16 15 14 16 20 20 19 18 17 19 23 22 21 22 23 21 18 17 15 15 15 14 12 11 10 9 10 10 11 11 11
5 4 3 5 8 6 5 7 8 8 7 7 7 6 6 3 4 4 3 4 5 3 3 5 3 3 4 5 7 14 13 10 8 8 9 6 6 8 6 7 7 5 8 9 7 7 8 11 15 15 14 12 12 14 14 13 13 13 14 15 17 20 20 19 19 21 21 19 20 21 20 18 17 16 17 16 14 12 10 10 10 10 10 11 11 11
4 5 4 4 5 6 7 6 7 10 10 8 7 7 7 6 5 4 4 4 5 4 2 1 1 2 2 3 5 9 10 11 9 10 11 9 9 7 4 8 8 3 7 12 11 10 10 14 18 18 15 14 14 13 12 11 12 12 11 11 12 13 14 15 16 17 18 18 18 20 20 19 18 18 18 16 14 12 11 10 10 10 11 11 11 11
2 2 4 6 5 7 10 8 8 11 13 13 9 6 7 7 5 5 4 3 3 4 3 2 3 2 2 3 5 7 8 8 6 8 12 11 12 13 9 11 12 8 9 13 11 10 11 14 18 19 18 17 16 14 13 12 13 12 12 12 12 12 13 14 14 14 15 17 17 19 20 19 18 18 18 16 14 12 11 11 11 11 10 10 10 10
2 1 4 5 3 6 10 9 13 14 10 9 8 6 6 5 6 6 4 3 3 2 4 3 3 2 3 4 6 9 9 7 2 4 9 9 9 13 13 11 10 10 11 13 12 10 11 12 14 15 17 17 15 14 13 12 13 13 12 12 12 13 14 15 15 15 15 15 17 18 19 18 18 18 17 16 15 13 12 12 12 11 11 10 10 10
1 2 4 4 2 4 6 5 8 11 9 6 7 8 9 8 6 3 3 4 4 4 6 4 1 2 4 5 8 11 10 8 4 2 4 8 7 9 12 10 9 9 10 11 11 10 10 11 10 11 12 13 13 13 12 11 12 12 11 11 11 11 12 14 15 14 13 14 15 16 18 18 17 18 17 15 14 14 14 14 13 12 11 10 10 10
1 1 2 5 5 4 4 2 1 4 6 7 11 12 12 13 8 2 1 3 4 5 6 3 2 4 5 8 9 9 9 8 4 2 3 7 6 7 10 10 10 10 10 11 10 9 9 8 8 9 10 11 12 12 11 10 10 9 9 10 10 9 9 11 13 13 12 12 13 13 15 14 14 14 14 14 14 14 14 14 12 12 12 11 10 10
2 1 2 3 4 1 2 2 3 5 7 9 14 17 14 11 9 5 3 2 2 1 3 2 5 9 8 9 10 8 7 7 5 3 5 7 7 9 10 10 11 10 11 12 11 11 11 8 7 9 9 10 12 11 11 10 10 10 9 8 7 7 7 8 10 11 11 10 11 12 12 12 12 13 13 14 13 11 12 13 11 10 10 9 10 10
2 4 5 3 2 4 5 4 4 5 8 11 13 16 18 16 10 7 6 4 4 2 0 2 8 12 10 8 10 9 6 5 5 5 7 9 10 12 11 11 13 12 12 13 12 13 13 10 7 8 9 11 12 11 11 11 11 10 9 8 7 6 6 7 9 9 10 11 12 12 12 12 12 13 13 13 11 10 11 11 10 10 9 8 9 10
3 5 6 6 6 6 5 4 6 4 2 7 9 11 15 18 16 11 9 8 7 4 5 7 10 13 11 9 10 9 8 7 7 8 8 9 11 12 12 13 15 15 14 14 14 14 14 11 9 9 10 11 12 11 10 10 10 10 9 9 9 7 5 6 8 8 10 10 10 9 8 9 10 11 11 11 10 10 11 10 11 13 13 10 8 9
4 3 5 6 7 7 6 5 5 6 6 3 3 7 10 11 11 10 12 13 6 6 12 14 15 13 9 9 10 9 8 8 8 9 8 7 9 12 13 14 15 16 15 15 15 15 15 14 14 14 12 11 12 13 11 10 10 9 9 9 10 9 7 6 6 5 6 6 7 7 7 7 8 8 9 10 9 9 10 10 11 14 15 12 8 7
3 2 4 5 5 5 6 5 5 6 7 8 7 5 6 8 8 8 8 10 7 8 12 15 15 10 6 7 8 7 6 8 10 11 9 7 6 9 13 14 14 16 16 16 16 15 15 15 16 18 19 18 17 15 12 11 10 9 9 10 11 10 9 8 9 8 8 6 5 6 6 6 6 6 7 8 8 9 9 9 9 10 11 11 10 8
3 1 2 4 5 4 5 6 5 4 6 8 9 9 8 4 5 7 7 6 3 6 9 9 9 6 5 6 7 6 7 10 12 12 11 11 11 10 12 13 13 14 16 15 15 16 15 15 16 19 20 22 22 21 20 18 15 13 13 10 10 10 10 10 9 8 8 6 4 5 5 4 5 4 4 6 7 8 8 7 7 7 8 10 11 11
3 1 2 4 4 3 4 6 6 4 4 5 4 6 8 6 2 3 7 8 3 4 4 3 5 8 8 8 8 9 11 13 13 12 11 13 14 14 15 15 15 15 16 15 15 15 15 15 17 19 20 21 22 21 22 22 19 18 18 14 10 9 9 10 10 10 9 8 6 5 4 4 4 4 3 3 4 5 5 6 7 7 8 9 12 13
5 3 1 1 1 2 4 2 3 5 4 1 4 6 4 6 7 4 6 6 4 4 6 7 9 12 11 10 11 11 12 13 12 12 12 11 12 13 15 15 15 16 15 15 14 13 14 15 16 17 19 20 21 21 22 23 22 22 22 20 17 14 10 11 12 13 13 12 11 9 7 6 6 4 3 2 3 5 5 6 6 7 9 10 14 16
1 1 1 1 1 1 2 3 2 4 2 3 5 7 5 2 7 7 7 6 7 10 12 12 12 13 12 13 12 12 12 13 13 13 13 12 11 12 12 12 13 13 13 12 11 11 13 15 15 16 17 17 18 19 20 22 22 22 21 21 22 21 17 15 15 16 18 17 16 15 13 11 9 7 5 2 1 2 4 6 9 11 12 13 15 16
5 2 2 2 1 1 1 1 2 1 2 4 4 6 9 5 5 7 6 6 7 8 11 13 14 13 14 14 12 12 13 13 12 11 11 11 10 10 11 11 11 11 10 9 9 10 12 13 13 13 14 15 16 18 18 19 19 19 19 19 20 21 19 18 18 19 20 19 18 17 16 14 12 10 9 8 5 4 3 4 7 9 10 10 11 12
6 3 1 1 2 2 2 2 1 1 1 2 4 5 6 5 3 1 2 5 5 6 9 13 15 15 15 14 13 12 11 10 9 7 7 9 9 10 11 11 11 11 9 7 5 6 9 11 11 10 11 13 15 16 16 16 16 16 16 17 17 18 17 16 15 16 16 17 17 16 16 15 15 13 12 11 10 9 7 5 4 5 8 10 11 11
4 4 3 3 3 2 3 2 1 1 0 3 6 7 5 5 8 7 2 4 4 7 11 13 15 15 14 13 12 10 9 8 6 4 4 7 9 9 11 12 11 10 7 5 4 5 5 7 8 7 8 10 11 12 13 13 12 11 11 12 13 15 15 13 12 11 12 12 13 13 13 14 14 13 13 12 13 13 12 10 9 8 8 9 11 13
3 2 3 4 3 3 4 2 1 1 1 2 4 7 8 6 8 7 1 3 5 9 11 12 14 14 13 13 12 8 6 6 5 5 6 8 9 10 9 9 10 9 8 6 5 4 5 4 4 6 6 7 8 9 10 10 10 10 9 9 10 10 11 12 11 10 11 12 12 13 13 14 14 12 11 11 12 13 13 12 12 13 12 11 10 12
4 0 2 4 3 3 4 1 1 2 3 3 3 6 8 8 7 4 2 4 6 8 10 11 13 13 12 13 10 5 4 6 6 7 9 9 10 10 9 9 10 10 9 7 4 4 5 5 4 6 6 7 8 8 9 9 9 10 10 9 9 9 10 11 11 11 12 13 13 13 14 14 14 12 11 11 12 13 13 14 14 15 16 15 14 13
2 3 2 3 3 3 3 1 3 2 3 6 7 6 6 6 4 1 2 3 4 7 9 10 10 10 9 9 6 4 6 9 10 10 10 10 9 9 9 10 9 8 8 7 5 5 6 5 5 6 6 7 7 7 8 9 8 9 9 9 9 10 11 12 12 12 12 13 13 14 14 14 14 14 13 13 14 14 15 15 16 17 17 18 17 17
5 4 4 4 3 4 2 2 3 3 2 6 7 5 4 4 1 2 1 3 6 10 13 14 12 12 11 10 8 8 10 12 12 12 10 9 8 8 8 8 8 8 7 6 6 6 6 4 5 6 6 7 8 8 9 9 8 8 9 9 8 9 11 12 12 13 13 13 14 14 15 15 15 16 16 16 16 17 18 18 18 18 18 18 19 19
5 4 3 4 4 4 2 2 2 4 3 6 6 3 3 2 4 4 4 6 8 10 12 12 11 11 12 11 11 10 11 11 10 10 9 8 7 7 7 7 6 6 6 5 6 7 7 5 5 6 6 6 7 8 8 8 8 8 8 8 8 8 9 10 11 11 12 13 14 15 15 16 16 17 17 17 17 19 20 20 19 19 20 20 21 21
5 5 3 4 3 4 2 3 3 4 4 5 5 4 5 7 7 6 7 8 7 8 9 9 8 9 11 11 10 10 10 10 9 8 7 7 6 6 6 6 5 6 5 5 6 7 7 5 5 6 6 6 6 6 5 5 5 6 7 8 8 9 10 10 10 11 12 12 13 14 14 15 16 17 18 19 19 20 21 21 21 21 21 21 22 21
6 5 3 5 5 5 5 5 5 5 5 6 7 6 7 11 11 11 10 9 7 7 8 7 7 8 8 9 9 8 8 8 7 6 6 6 6 5 5 5 5 5 4 4 5 5 5 4 4 4 4 5 4 4 4 5 5 7 8 8 8 10 11 11 12 13 13 13 13 14 15 16 16 17 17 18 20 21 21 21 21 21 21 21 21 21
6 4 2 4 7 8 7 7 7 7 7 8 8 7 8 10 11 11 11 10 8 8 9 8 8 9 8 6 7 7 6 6 6 5 5 5 5 4 4 5 5 4 3 3 4 3 3 2 2 2 2 3 4 4 5 6 7 8 10 9 10 11 12 12 14 14 15 15 15 15 16 17 17 17 17 17 19 20 21 22 22 21 22 21 21 21
5 4 3 4 4 2 4 6 7 7 7 8 8 8 8 10 10 10 9 9 8 9 9 9 8 7 7 6 5 5 5 4 4 4 4 4 4 4 5 5 5 4 3 3 3 2 1 1 1 1 3 5 6 6 7 7 8 9 11 12 12 13 14 14 15 15 16 16 17 17 17 18 18 19 19 18 18 19 20 21 21 22 22 21 21 22
3 5 3 5 3 2 6 8 8 7 8 7 6 6 7 8 9 9 8 8 9 9 9 8 7 6 5 5 4 4 5 4 3 3 3 3 3 4 5 5 5 4 3 2 2 1 2 1 3 4 5 6 7 7 8 8 9 11 12 13 14 14 15 15 15 15 15 16 16 17 17 17 18 19 19 19 19 20 19 19 20 21 22 21 19 17
3 6 3 6 5 5 7 8 8 8 7 7 8 7 7 7 8 8 8 8 9 9 8 8 7 6 6 5 3 2 4 5 4 3 3 2 4 5 5 5 5 4 3 2 1 3 2 3 5 5 6 6 7 8 9 10 11 12 13 13 13 13 14 14 14 14 14 14 15 15 15 16 16 17 18 18 20 21 22 21 21 22 23 24 23 21
3 5 5 3 3 3 5 6 6 5 5 6 8 8 8 8 7 8 7 7 8 7 6 6 6 7 8 8 6 3 3 4 5 4 3 3 5 5 4 5 5 5 4 2 3 4 1 5 5 5 6 7 8 9 10 12 12 12 12 12 12 12 12 13 13 13 13 13 13 14 14 15 16 16 18 19 19 21 23 24 25 25 25 26 26 27
6 7 6 4 2 5 6 5 2 3 5 7 7 7 7 6 5 6 5 4 5 5 4 3 3 3 4 5 5 3 2 3 5 4 4 4 4 4 5 7 7 6 5 5 5 2 5 5 5 6 7 8 9 10 12 13 13 12 11 11 11 11 12 12 13 13 13 13 13 14 15 16 16 16 17 17 18 20 22 23 25 25 25 25 25 25
Wind_Direction
205 212 217 220 226 223 222 229 239 241 242 254 273 270 241 229 244 234 243 235 185 185 203 212 221 211 225 242 233 176 145 199 220 194 222 222 185 180 185 180 168 161 167 176 168 156 162 168 163 163 166 165 162 163 164 160 155 156 160 156 148 146 143 144 146 142 141 138 137 138 136 138 139 131 127 124 116 118 122 122 134 145 145 147 149 155
205 220 226 222 228 232 228 223 236 252 256 264 281 286 255 225 240 238 239 230 186 185 202 203 223 220 217 234 233 202 169 192 225 212 227 226 193 200 201 182 178 169 165 168 150 147 170 168 159 162 161 163 166 170 171 161 151 155 163 154 146 150 143 136 138 139 141 139 138 142 140 143 142 137 139 134 122 116 118 118 122 127 130 141 143 143
211 225 231 230 230 237 241 226 222 242 255 263 266 278 276 239 236 240 238 231 190 174 216 201 211 229 223 224 232 228 191 180 205 213 220 222 205 205 208 191 169 161 174 163 140 150 177 167 158 160 159 165 172 178 172 153 146 153 162 156 146 147 142 131 129 130 132 136 140 137 135 143 135 129 133 129 126 121 120 120 116 116 118 123 131 136
212 224 227 234 234 231 240 240 230 233 238 256 257 253 271 264 244 239 227 218 165 140 249 230 218 232 233 229 223 231 224 185 185 206 218 222 211 210 219 188 153 177 186 156 139 156 177 169 164 162 159 166 175 180 166 147 147 153 158 156 144 138 134 130 128 123 123 129 132 121 119 130 124 115 115 116 123 124 121 119 113 112 114 115 122 127
225 227 217 223 231 226 224 234 247 247 231 239 250 246 256 263 256 242 164 165 148 144 214 255 257 238 230 232 213 218 236 198 176 198 215 222 211 213 224 170 135 183 183 151 144 162 180 172 168 166 163 170 174 170 158 148 149 150 148 142 136 135 134 134 134 126 124 119 114 114 110 115 117 113 116 122 126 127 125 123 118 117 119 121 125 126
232 234 222 223 224 217 210 214 221 233 247 238 234 240 254 263 264 257 190 173 201 191 182 208 248 241 228 235 220 218 230 197 177 203 216 218 208 212 215 139 95 205 193 153 142 163 181 164 164 166 162 164 164 161 151 142 142 139 135 132 131 137 139 139 139 137 135 122 109 117 113 112 121 128 140 138 136 138 131 126 124 121 122 122 125 128
237 236 236 229 207 189 209 226 220 219 237 249 228 224 242 256 264 272 248 180 203 231 194 197 231 247 226 231 229 227 224 195 191 214 218 215 210 215 199 109 97 218 195 140 129 156 167 169 173 156 149 150 147 144 120 116 128 125 119 126 134 139 142 141 142 146 142 128 120 135 129 133 148 152 150 142 139 135 123 121 122 120 124 124 121 122
234 233 224 218 201 195 218 227 219 216 221 246 242 218 223 240 253 266 263 219 210 230 217 205 219 243 233 224 220 217 220 210 202 206 209 216 219 207 122 106 172 218 193 148 145 143 143 221 208 114 119 146 135 118 105 109 123 123 121 138 144 143 144 143 144 148 141 130 136 159 159 176 180 153 139 135 131 122 120 128 129 128 130 131 128 126
213 225 207 208 221 219 228 232 219 216 221 239 249 243 228 227 238 252 256 242 231 227 228 216 213 234 244 234 215 207 220 217 202 199 205 216 214 134 100 123 212 215 193 170 133 131 151 206 206 100 105 125 126 121 119 121 130 134 138 148 148 144 143 146 149 150 145 138 144 168 197 196 164 138 138 139 131 127 135 142 144 145 138 134 134 131
209 216 205 205 223 228 227 232 225 216 224 237 245 261 259 225 221 239 244 236 234 227 233 224 214 226 247 237 207 204 235 219 196 204 209 206 162 94 95 85 289 243 186 93 81 118 148 143 139 109 92 95 108 122 131 130 131 139 144 144 144 144 145 152 159 158 154 145 145 170 212 185 145 142 153 147 140 142 147 152 153 149 142 139 137 131
229 210 217 215 214 229 230 229 228 219 219 231 235 253 265 235 216 229 230 231 237 234 239 232 218 217 246 246 207 202 224 202 199 212 191 168 118 91 90 92 256 241 137 83 83 103 120 106 106 110 95 88 95 118 135 135 133 141 144 141 142 146 153 164 169 166 160 150 151 174 198 168 149 159 165 150 151 156 155 160 161 158 156 150 139 132
237 207 219 239 225 229 236 236 234 217 209 225 227 233 254 237 220 224 216 224 237 235 239 237 224 213 230 252 223 209 215 192 210 208 160 160 152 129 131 155 202 211 108 96 102 110 125 120 115 120 126 133 134 136 143 143 143 146 147 147 147 153 165 172 174 172 165 157 160 177 182 163 160 171 168 158 162 165 164 170 173 173 162 144 137 137
235 222 206 223 233 233 237 237 226 206 211 229 221 219 238 227 215 224 216 219 233 237 232 231 232 223 225 263 14 41 7 205 209 185 148 174 177 151 161 177 184 167 109 107 116 126 140 128 119 135 149 155 161 160 154 152 154 153 152 154 155 163 175 179 181 180 171 163 168 180 175 166 170 176 171 170 173 169 172 178 181 183 165 149 146 140
218 230 218 212 218 226 236 238 209 192 212 228 225 219 222 214 214 222 220 222 226 233 229 214 224 230 199 97 73 80 62 42 209 146 135 170 172 157 165 173 152 110 99 102 112 124 125 116 127 151 162 158 164 170 160 156 159 159 161 164 163 168 176 180 184 183 174 171 179 185 174 169 173 176 176 178 176 173 176 181 187 190 170 153 146 136
214 223 219 213 206 201 217 236 236 214 202 212 227 235 227 217 226 224 224 240 238 246 237 202 193 222 183 100 73 90 84 56 40 63 73 76 116 144 157 148 104 83 90 99 107 108 107 114 129 150 169 159 156 158 156 157 159 161 167 170 170 171 173 176 179 177 175 178 186 183 174 173 174 174 178 178 178 177 173 178 189 186 161 145 138 134
231 231 204 204 208 196 202 226 247 248 223 206 217 230 231 218 223 229 217 236 308 305 278 216 194 87 120 111 90 105 109 96 79 75 67 56 59 68 85 101 89 84 95 99 95 90 96 108 116 121 130 134 137 144 147 151 158 164 169 172 174 174 173 176 176 173 173 177 182 179 174 178 177 173 177 177 176 178 168 172 182 163 146 141 137 134
231 246 211 198 205 204 202 213 232 242 238 223 226 227 226 213 202 217 217 173 148 266 257 200 125 104 133 150 142 151 141 112 92 78 69 61 63 65 66 77 79 84 95 97 96 93 88 95 101 105 112 126 139 147 149 154 166 173 173 175 179 177 177 179 178 174 171 171 175 176 175 179 178 176 179 176 173 173 168 168 167 149 143 142 139 136
231 262 261 224 218 207 203 210 222 228 223 221 235 246 251 225 193 177 231 219 204 237 227 180 183 184 178 193 176 164 137 96 81 74 73 70 75 78 74 76 80 88 96 99 103 99 91 100 108 110 117 134 143 147 150 155 166 173 175 180 179 176 178 179 176 173 170 170 172 175 177 179 179 178 177 174 171 169 167 165 161 154 146 143 142 140
214 254 246 250 246 208 194 215 224 221 223 229 231 72 256 233 205 186 211 231 219 234 242 203 197 197 4 256 176 154 119 96 95 94 94 88 83 86 88 93 98 101 101 106 115 106 96 111 115 108 116 135 135 130 131 140 154 164 172 179 176 172 174 173 172 170 168 170 173 175 178 176 176 176 172 170 169 165 167 167 164 161 153 148 147 145
184 255 236 240 257 217 186 215 231 217 220 233 244 226 210 210 225 229 233 240 227 226 239 222 201 131 21 355 124 126 115 111 120 114 103 90 76 80 91 103 107 106 103 103 113 116 123 133 130 126 135 142 126 121 126 136 149 158 165 169 165 166 173 175 174 172 168 171 173 174 175 173 172 171 167 167 166 164 168 167 165 164 159 155 152 149
167 212 232 238 261 258 220 213 221 228 225 225 231 234 233 211 191 208 236 251 246 241 254 250 216 85 17 356 88 112 123 127 129 116 104 96 77 71 78 95 91 100 122 127 131 139 148 146 141 143 146 140 123 119 124 135 150 157 157 157 154 159 168 174 176 174 169 170 171 171 171 169 168 166 165 166 164 164 168 165 165 165 161 160 157 154
168 188 210 229 239 248 252 239 223 235 241 236 223 218 229 224 199 208 234 248 254 250 259 302 140 96 35 14 81 109 122 123 129 123 119 134 133 123 133 124 123 169 141 129 134 141 145 144 143 144 144 140 134 128 127 135 145 145 142 144 145 149 157 163 168 168 165 166 168 169 168 166 165 164 164 165 165 164 165 166 167 165 164 164 161 159
76 179 221 228 230 242 259 292 305 272 250 243 239 231 233 227 214 221 223 219 258 267 248 172 152 127 59 59 96 104 92 92 122 128 122 135 139 133 135 130 137 156 136 129 138 142 142 142 140 140 138 137 137 135 138 142 140 137 137 140 144 150 157 160 165 168 164 163 166 168 168 167 165 163 163 164 166 166 165 169 169 166 166 165 162 166
77 201 229 223 261 271 266 297 317 307 285 253 249 258 264 252 230 234 240 220 207 241 249 207 159 129 85 76 93 96 81 69 74 120 119 122 121 116 112 110 118 122 120 129 137 138 139 136 130 130 130 129 131 134 139 139 133 132 137 141 147 154 159 162 168 171 165 162 165 168 169 168 165 168 168 165 165 168 167 170 171 169 170 169 167 171
356 249 236 225 235 252 251 275 307 320 339 331 294 273 258 251 245 253 286 269 249 247 252 245 161 92 98 95 89 88 83 73 37 344 105 103 90 97 105 107 109 111 113 120 122 123 124 122 117 115 115 115 118 121 123 121 121 125 131 138 145 150 152 155 157 158 159 161 162 164 168 169 168 171 172 167 171 176 173 171 172 173 174 172 171 175
214 289 244 249 249 230 231 232 279 330 348 340 327 313 278 255 255 307 355 248 264 272 274 288 103 124 123 117 106 93 94 97 82 345 84 94 88 93 100 101 99 98 100 102 104 103 97 93 98 103 103 103 103 103 104 105 106 111 119 126 132 138 141 145 146 143 147 157 161 167 173 175 175 176 172 169 178 183 174 170 173 176 177 176 174 177
148 197 197 251 268 216 155 131 69 16 355 349 351 350 332 292 267 272 266 216 162 75 340 344 137 142 138 129 119 111 113 117 124 145 120 110 105 95 92 93 89 87 90 93 95 97 93 85 82 84 85 90 94 95 94 94 93 90 93 103 115 125 128 133 138 134 135 150 163 171 178 181 186 190 180 172 178 181 168 164 173 178 179 182 180 180
150 205 188 189 205 153 147 134 89 32 354 352 357 0 358 349 328 293 269 238 206 166 342 217 148 131 125 118 111 117 132 136 146 141 117 108 105 100 96 96 90 83 81 80 77 80 87 94 96 88 82 81 83 83 82 85 91 96 98 98 99 105 112 120 129 136 148 163 167 167 172 177 182 186 182 173 175 182 175 167 173 181 183 190 192 187
233 228 182 190 220 205 185 156 135 147 310 345 354 1 9 10 4 351 326 297 263 213 151 143 126 116 118 107 96 109 127 124 118 108 100 104 111 111 107 101 93 85 79 77 72 65 66 73 83 92 98 97 94 92 89 85 84 87 93 94 91 91 99 120 137 152 160 158 149 144 152 161 163 165 169 169 169 181 185 177 174 181 185 189 193 191
235 237 192 207 228 223 211 196 180 194 208 229 308 347 2 10 23 27 3 346 353 114 124 122 111 103 110 104 87 88 97 97 94 90 90 98 107 110 106 100 95 88 81 75 70 62 58 57 56 60 70 86 100 105 109 111 107 98 94 94 90 85 78 82 93 99 104 109 113 117 121 133 147 156 163 165 166 179 191 189 182 186 189 189 191 191
304 275 229 219 218 217 210 211 224 222 218 221 229 267 317 346 27 57 33 360 17 93 106 110 108 99 96 100 95 91 96 99 93 85 80 70 71 95 103 103 104 98 87 78 68 57 51 49 44 43 44 45 51 57 62 79 95 96 94 99 94 81 73 72 71 69 71 73 81 90 94 114 142 161 166 166 175 186 195 198 190 189 195 200 205 205
327 273 236 228 223 220 203 199 204 208 231 240 233 235 253 294 23 52 53 28 55 117 103 96 104 111 122 119 107 92 89 90 82 72 67 59 51 57 72 83 94 91 79 72 65 53 45 43 38 35 37 36 35 34 35 40 47 49 52 69 82 77 74 79 85 96 104 106 97 83 81 101 126 146 156 165 176 179 182 186 180 183 199 208 213 220
295 211 201 231 231 240 231 208 192 184 226 246 252 259 247 217 164 71 53 35 39 143 129 86 104 127 136 120 91 68 60 63 63 61 65 69 66 62 61 63 68 67 61 57 55 48 40 37 34 31 32 33 30 29 29 27 27 30 29 33 54 71 80 79 76 80 89 96 98 97 103 111 115 126 137 157 174 172 178 184 179 188 206 213 213 222
324 355 307 254 215 263 293 282 206 205 216 269 328 321 272 194 177 134 92 61 50 100 102 94 116 135 133 108 89 79 67 62 61 61 64 70 74 72 66 62 60 59 58 54 51 47 40 35 33 31 31 30 27 26 26 22 20 22 23 22 25 33 56 72 63 52 48 48 49 49 53 63 64 75 108 147 176 181 196 204 203 212 221 221 218 220
60 351 252 234 178 237 342 352 256 222 244 333 336 352 7 143 153 129 112 103 102 109 110 113 126 131 115 98 94 94 88 79 71 62 59 61 69 76 73 67 63 60 58 54 48 43 38 32 29 28 29 27 25 26 25 22 21 21 20 20 18 20 36 55 50 38 32 29 30 28 27 31 33 29 24 20 96 183 203 201 203 214 215 209 208 213
142 189 195 179 241 257 158 230 235 215 343 332 344 13 15 39 116 123 119 118 125 132 131 131 131 120 105 100 101 101 98 90 77 65 60 58 61 70 73 71 67 65 63 59 51 45 39 33 29 27 27 27 28 28 26 24 23 21 17 17 16 17 30 40 34 26 23 19 16 17 14 13 14 10 2 359 353 324 283 227 208 212 214 211 209 212
142 148 140 154 207 251 225 184 125 95 323 346 26 28 24 27 13 356 125 130 135 131 122 122 123 119 113 113 115 114 108 94 75 65 74 79 75 75 78 79 78 75 73 76 80 75 60 47 40 36 33 32 30 27 25 25 26 22 17 15 13 12 21 32 27 19 16 10 4 4 4 0 359 358 357 351 340 334 337 330 289 245 228 228 226 222
154 150 194 206 182 212 230 201 154 178 206 36 21 6 12 20 350 341 37 114 112 107 108 113 119 123 124 124 126 123 107 88 78 84 109 109 100 93 90 89 88 86 83 87 102 112 95 65 55 59 52 42 33 22 18 22 23 20 16 15 13 8 10 21 24 14 5 357 351 352 352 347 344 346 349 342 335 339 347 339 320 302 271 245 233 230
250 152 191 229 211 198 217 226 213 188 87 37 8 354 357 5 351 339 16 118 112 114 117 119 123 126 130 135 139 138 115 100 111 131 144 143 129 123 124 124 127 130 118 99 93 103 110 98 82 84 70 49 38 23 16 19 17 13 15 14 11 6 4 9 10 359 347 342 342 342 339 332 327 328 332 329 327 331 330 321 314 309 300 285 260 244
254 239 221 249 254 231 227 230 68 92 68 33 6 358 356 353 339 305 200 130 120 129 131 129 130 135 144 150 153 152 131 126 126 123 127 130 125 125 129 132 139 139 119 98 82 67 77 83 73 67 56 42 36 26 19 20 15 9 10 6 358 359 1 358 353 345 339 336 335 330 324 319 315 315 317 315 311 311 311 309 307 304 303 302 293 275
316 344 299 265 268 266 247 123 91 88 35 356 349 353 339 325 320 266 156 109 109 118 109 101 106 114 126 137 130 85 91 108 115 117 119 116 111 111 110 107 109 106 93 90 82 50 45 57 57 48 40 32 30 26 23 22 16 10 10 4 357 359 358 351 344 339 333 328 324 319 314 312 311 312 311 306 301 297 294 292 292 292 292 293 291 286
354 356 341 326 319 303 279 128 111 100 13 319 320 330 313 290 171 123 73 61 87 98 88 74 71 74 77 83 84 83 95 107 115 120 120 115 109 106 103 100 98 92 86 91 87 58 35 39 53 44 33 27 25 22 19 16 16 16 11 1 354 352 346 338 334 331 327 324 322 319 316 314 311 308 303 296 291 289 286 282 280 279 279 281 281 281
12 346 354 23 358 327 347 85 108 92 33 318 311 329 344 34 109 110 70 59 66 86 92 84 81 86 86 83 82 86 92 98 104 108 108 103 100 96 91 87 81 74 65 61 62 46 22 22 40 34 27 29 24 18 14 12 14 13 1 348 342 338 331 326 325 324 323 323 321 318 317 315 312 309 303 297 291 285 282 279 276 273 271 271 272 273
18 345 4 48 8 325 15 63 75 82 52 12 18 47 50 63 73 65 65 69 63 75 85 77 74 88 96 97 95 94 95 94 95 101 106 105 100 98 96 89 76 66 55 45 43 30 14 17 31 27 26 27 20 16 15 11 5 354 343 340 337 332 327 324 323 321 320 319 317 315 314 312 309 307 305 303 301 295 287 281 275 271 269 265 265 266
33 34 49 58 45 41 71 94 94 88 78 66 67 72 70 71 65 54 57 64 69 80 81 63 55 67 81 94 101 99 99 103 104 106 113 114 107 99 98 94 84 71 60 56 49 27 7 9 27 34 36 24 9 3 2 355 345 334 330 334 333 328 326 325 324 322 320 317 316 316 314 311 308 305 303 303 304 303 299 292 283 275 272 267 264 264
51 46 61 92 88 77 78 95 99 90 87 85 82 76 71 72 69 64 64 62 63 76 80 70 59 51 48 69 93 94 91 100 107 109 113 113 111 108 105 101 92 77 67 72 63 24 357 27 59 57 37 9 348 344 347 344 335 325 325 330 329 324 324 324 321 321 319 317 316 316 314 313 312 310 308 305 303 300 298 297 294 285 278 272 268 266
54 5 30 96 118 104 92 105 109 103 99 95 88 81 78 77 73 73 77 76 75 78 78 76 75 64 51 55 79 95 98 94 99 114 117 111 114 116 103 86 75 68 64 63 57 19 318 92 70 353 352 352 345 344 345 339 331 328 331 335 331 325 322 320 317 316 315 314 314 313 312 311 311 311 311 307 302 297 291 290 292 290 284 279 274 270
13 321 18 85 77 66 105 119 122 117 115 111 105 98 92 85 81 81 86 90 91 89 87 88 88 86 77 67 76 108 115 104 89 91 104 111 117 106 86 66 53 52 49 48 55 266 255 311 13 356 352 351 346 346 345 338 334 334 333 331 329 325 322 320 317 314 310 307 307 308 307 308 309 310 309 306 303 302 299 293 291 289 286 285 286 285
315 312 10 86 91 93 114 127 128 124 120 110 104 107 107 103 103 103 105 109 107 103 102 102 100 106 109 99 81 94 112 110 90 57 47 82 87 71 57 46 39 30 25 35 257 259 287 23 22 357 348 349 348 347 344 337 334 333 331 330 330 328 324 321 318 312 307 303 303 303 303 305 306 306 305 304 303 303 302 301 301 299 293 289 290 297
5 356 18 74 126 125 128 135 133 127 125 116 113 117 121 124 128 125 122 124 120 112 110 114 123 135 128 107 85 64 67 82 75 52 23 33 58 54 37 33 27 4 356 345 273 265 13 41 16 350 349 352 349 344 340 338 335 335 335 334 332 329 323 319 315 310 305 302 300 303 308 308 305 303 303 302 301 301 301 303 305 306 304 298 293 294
35 26 26 28 56 88 106 126 128 112 125 128 123 123 124 127 134 127 112 107 117 129 140 127 114 128 118 88 79 81 68 51 46 35 17 16 24 20 20 26 17 350 339 318 289 314 48 37 358 349 350 347 346 343 340 340 338 335 334 332 331 329 323 318 314 309 305 301 300 306 313 310 304 303 302 300 300 300 300 302 305 306 306 306 302 298
Height
730 740 743 740 736 729 726 724 722 720 716 713 712 712 710 712 712 701 693 682 680 699 709 707 710 712 711 706 699 694 697 705 706 708 711 708 708 716 722 727 733 738 740 743 749 752 753 753 753 756 759 761 763 766 768 771 775 777 779 782 784 788 791 794 796 797 798 799 801 802 804 806 807 808 809 810 811 812 813 814 815 815 815 816 816 815
730 742 739 729 727 722 719 719 719 719 717 716 717 716 708 705 706 695 688 683 681 697 705 703 708 709 706 704 698 695 701 708 708 710 712 708 709 712 717 723 727 732 735 738 745 749 750 751 753 756 758 760 762 764 767 770 776 780 781 782 784 788 791 793 796 797 799 800 801 803 804 806 807 808 809 810 811 812 813 815 815 816 816 817 817 817
737 739 730 721 718 717 716 713 717 720 720 720 719 721 714 702 700 695 686 680 682 699 705 702 709 710 703 700 697 694 697 703 705 706 709 708 709 711 714 718 724 736 740 738 743 747 748 749 753 756 757 759 761 763 767 771 776 781 783 784 784 787 790 792 794 796 798 800 801 803 804 805 806 807 808 809 811 812 814 815 816 816 817 817 818 818
741 732 721 716 713 716 717 712 714 719 720 723 721 724 721 705 702 703 695 686 686 699 706 703 707 709 704 700 696 693 692 695 700 703 704 704 707 709 710 712 723 739 741 737 743 745 747 751 753 754 756 758 761 764 767 771 775 780 784 785 784 786 788 790 793 795 797 800 801 802 803 804 805 807 808 810 811 812 813 814 815 816 817 818 818 819
729 717 709 712 712 712 717 717 720 724 726 725 722 723 720 708 703 702 700 696 695 704 707 709 719 716 707 704 700 694 692 693 698 703 705 703 704 706 707 711 721 732 733 734 743 746 746 750 751 753 756 759 762 765 767 771 775 779 784 785 784 786 788 789 792 794 795 798 800 801 802 804 805 807 809 810 811 812 813 814 815 817 817 818 819 819
717 706 702 709 710 708 716 722 724 728 731 727 721 718 715 711 705 698 699 704 713 721 712 716 740 733 709 704 703 698 695 695 699 704 706 704 703 705 709 715 724 733 733 733 741 746 746 748 751 754 758 762 764 766 768 772 777 782 785 787 786 786 788 789 791 793 795 796 798 801 803 805 806 808 810 810 812 812 813 814 815 817 818 819 820 819
710 703 701 706 709 712 720 724 720 722 732 732 717 710 712 711 709 704 702 710 726 731 713 714 741 741 717 708 705 700 699 699 703 706 705 704 705 705 710 721 731 735 734 734 741 745 747 751 753 757 763 765 766 768 771 776 780 784 788 789 787 786 788 789 790 793 794 794 797 801 804 806 807 808 810 811 812 813 813 814 816 817 818 819 820 820
706 705 706 707 711 717 723 723 717 715 729 730 709 703 709 710 711 709 705 712 718 720 716 711 724 737 729 714 701 698 702 703 704 706 706 705 705 707 714 727 736 735 731 734 741 747 753 759 759 762 767 767 768 770 774 778 780 783 787 789 788 787 789 789 791 793 793 794 798 802 805 807 808 809 810 811 812 812 814 815 816 817 818 819 819 820
702 708 710 710 715 719 719 716 710 710 721 719 703 699 702 703 708 706 706 713 712 720 732 719 716 736 735 710 695 696 703 706 706 707 709 707 708 714 721 726 730 730 729 733 741 748 757 762 761 764 768 768 768 771 773 775 777 780 784 788 788 789 790 791 792 793 794 796 799 803 806 808 809 810 811 811 812 813 814 816 817 818 818 819 819 820
699 701 702 708 715 716 712 707 702 707 713 707 701 700 696 695 701 704 709 714 716 730 741 725 716 735 738 712 700 707 709 707 707 707 707 707 713 721 724 726 729 729 729 738 745 751 759 761 760 766 771 770 770 772 775 775 776 780 783 786 788 790 791 793 794 795 797 798 800 803 807 808 809 810 811 812 813 814 816 817 818 818 819 819 820 820
695 693 695 701 707 706 703 701 697 699 702 700 701 704 702 698 698 705 709 711 728 742 736 720 713 728 741 720 702 708 708 703 706 707 707 710 716 724 725 729 736 733 732 744 751 755 762 762 761 768 774 774 776 778 779 779 779 781 783 785 789 790 792 794 795 797 798 798 800 803 806 808 809 811 812 813 814 815 816 818 818 819 820 820 820 821
698 699 701 698 697 698 700 700 694 691 694 699 704 708 715 715 710 714 714 717 742 750 729 713 706 719 740 725 702 702 699 697 703 706 710 715 718 723 725 730 737 734 735 748 755 757 762 762 761 767 771 772 776 778 777 779 781 782 783 785 788 791 792 794 795 797 798 798 800 803 806 808 810 811 812 813 814 815 817 818 819 820 820 820 821 822
705 702 700 699 696 695 701 705 699 695 697 703 706 714 729 735 733 737 736 735 746 741 719 707 708 720 732 718 702 704 703 700 701 702 709 714 715 720 724 728 732 733 739 749 753 755 758 758 761 766 767 767 770 771 770 773 777 779 781 783 786 789 791 793 794 796 797 798 800 803 805 807 810 812 813 813 814 815 816 818 819 819 820 821 821 821
714 706 697 701 700 694 699 706 709 707 706 708 709 716 731 742 752 757 750 743 743 731 709 701 714 730 730 715 705 707 709 705 700 700 708 711 713 718 722 725 729 734 742 747 748 750 753 755 760 764 766 765 767 770 769 769 770 771 773 776 780 784 787 790 793 795 797 798 801 804 805 807 809 811 813 814 814 815 816 817 819 819 820 820 821 821
722 720 704 701 701 695 697 700 700 700 702 706 702 706 720 731 745 752 746 743 742 731 714 708 721 732 731 722 710 706 708 708 707 708 710 712 714 718 723 727 734 740 744 747 746 748 750 753 760 765 765 765 766 769 770 770 771 771 771 772 775 778 782 786 789 793 796 799 802 804 806 807 809 810 812 814 815 815 816 817 818 819 819 820 820 820
717 715 695 690 691 691 697 695 689 694 703 702 694 703 716 716 722 733 737 736 736 737 729 722 725 725 722 718 709 707 711 711 715 717 718 723 722 723 729 734 741 746 747 749 750 750 751 755 764 770 772 771 771 771 771 771 774 775 776 776 777 778 780 783 786 789 793 798 801 803 806 808 809 810 811 813 815 815 816 817 818 819 819 819 820 820
716 709 688 686 689 685 691 692 687 695 708 707 702 706 704 695 705 728 736 727 731 747 740 728 732 729 724 724 714 711 715 716 722 726 728 732 730 730 736 739 744 747 749 752 752 753 755 760 768 774 776 777 776 776 775 774 775 777 778 779 780 780 781 783 785 788 791 794 799 802 805 807 808 810 811 812 814 815 816 817 818 819 819 819 819 820
711 713 694 689 695 686 681 687 686 685 695 709 712 704 693 692 701 719 737 736 739 751 737 724 733 734 733 736 722 714 722 728 732 735 736 737 735 737 742 744 746 749 752 756 757 758 760 764 770 773 775 777 777 777 778 777 778 779 779 780 780 781 782 784 785 788 790 792 796 800 803 806 808 809 811 812 813 814 815 816 817 818 819 819 819 820
703 718 706 690 694 686 677 688 695 686 683 693 699 694 701 721 722 719 734 745 747 754 741 724 726 731 735 734 724 722 730 736 738 740 743 743 740 743 748 752 753 754 758 762 763 763 764 767 771 772 777 781 779 778 780 782 782 783 782 782 782 784 786 788 788 789 791 793 796 799 802 805 807 809 810 812 813 814 815 816 817 818 818 819 819 820
701 722 718 695 687 685 684 694 704 699 688 685 691 691 698 717 724 722 728 731 737 751 747 727 726 743 746 733 726 731 735 737 741 743 745 745 742 745 751 755 756 757 761 766 766 765 767 770 773 775 780 782 780 779 780 782 784 784 783 782 783 785 788 791 792 791 792 794 796 799 801 804 806 808 810 811 813 814 815 815 816 817 818 818 819 819
700 720 726 706 691 694 700 699 700 702 696 695 702 704 703 706 711 719 723 718 722 740 746 737 744 760 754 734 730 736 737 738 742 743 747 749 746 748 753 755 758 760 762 767 769 770 772 774 775 778 780 780 780 780 781 783 785 785 785 784 784 785 788 790 791 791 792 794 796 798 801 803 805 807 809 811 812 813 814 815 816 817 817 818 818 819
701 713 722 717 709 710 707 692 688 692 692 695 700 703 705 706 712 727 734 720 713 725 736 746 763 766 749 734 734 735 735 739 742 743 749 754 754 757 760 759 765 769 765 765 769 772 773 774 775 778 779 779 780 781 782 784 785 786 786 786 787 787 788 790 791 791 792 794 796 798 800 802 804 806 808 809 811 812 813 815 815 816 817 817 818 818
699 708 718 720 714 709 701 690 689 689 686 687 690 692 695 698 707 727 740 734 725 723 723 734 758 762 743 733 735 736 738 745 747 744 746 751 753 757 760 760 765 769 765 765 769 769 771 772 773 775 777 779 780 781 783 784 784 785 786 786 787 788 789 790 792 794 794 795 796 798 800 802 803 805 807 808 810 811 813 814 815 816 816 817 817 818
700 710 721 725 721 713 701 694 693 689 686 691 691 689 693 696 700 707 717 726 732 733 727 732 753 759 744 734 737 742 748 752 753 749 746 748 750 751 756 759 762 764 763 765 767 768 769 770 771 773 775 777 779 780 782 782 783 785 786 786 788 789 789 791 793 795 795 795 796 798 799 801 802 804 806 807 809 810 812 813 814 815 816 816 817 818
710 715 719 730 741 739 725 716 716 711 707 710 704 695 693 694 697 703 706 713 725 728 723 734 757 760 745 739 743 749 755 758 760 758 752 752 754 754 757 761 764 765 765 766 767 767 769 770 771 773 774 776 778 779 781 782 784 785 786 787 788 790 790 790 792 793 794 795 796 797 798 799 801 803 805 807 808 809 811 811 813 814 815 816 817 817
718 720 721 732 743 749 748 742 741 736 728 724 717 706 699 693 697 710 716 723 733 730 721 736 760 762 749 746 751 755 759 762 767 768 763 761 763 761 759 762 765 766 767 768 769 771 772 773 775 775 776 777 778 779 781 782 784 785 786 787 788 790 790 790 791 792 793 794 795 796 798 799 801 803 804 806 807 809 810 811 812 814 815 816 816 817
716 721 722 729 732 738 745 741 737 737 736 734 729 720 713 703 698 707 719 730 737 737 740 747 754 758 757 753 756 762 765 767 770 770 767 765 764 763 762 764 765 766 767 768 770 772 775 778 779 778 778 779 780 781 782 784 785 787 788 788 789 790 790 790 791 791 793 796 797 798 799 800 802 804 805 805 807 808 809 810 812 813 815 816 817 817
719 724 723 727 729 729 732 734 736 740 741 740 735 728 725 720 714 714 721 725 727 738 756 756 746 754 762 757 759 767 769 770 770 766 764 763 762 764 766 767 768 769 770 771 772 774 777 780 781 780 781 781 782 784 785 787 788 789 790 790 790 791 791 791 792 793 795 797 797 798 799 800 802 803 804 805 806 807 809 810 811 812 813 815 816 817
718 723 721 725 729 725 724 730 736 741 742 740 739 735 734 736 739 738 732 723 718 729 748 751 749 757 763 761 763 766 765 767 767 764 763 763 763 765 767 769 772 774 775 776 777 778 780 781 782 782 783 783 784 786 787 788 789 790 790 791 792 793 793 793 795 796 796 796 796 797 798 800 801 802 803 805 806 807 808 808 809 810 810 811 813 816
715 722 720 722 728 725 724 729 731 735 739 740 740 740 740 741 747 753 753 740 727 728 736 744 755 764 766 766 767 765 763 764 763 763 765 766 766 767 769 772 775 778 780 781 781 783 785 785 785 785 785 785 786 787 788 789 790 790 791 791 793 794 795 795 796 796 796 797 798 798 799 800 801 802 803 804 805 806 807 808 809 809 810 810 811 814
718 726 721 719 729 729 725 728 731 734 738 740 742 743 744 746 746 751 760 757 749 747 747 750 764 773 771 768 768 767 766 764 764 767 770 771 771 770 771 774 776 779 783 786 788 790 790 790 791 790 789 789 789 789 789 789 790 790 790 791 793 794 795 796 797 797 799 801 801 800 800 801 801 803 803 804 805 806 807 808 809 810 811 811 811 812
726 729 725 725 735 734 727 729 734 735 738 742 744 744 745 750 751 749 755 758 759 762 762 762 770 778 775 770 771 772 770 768 771 776 778 780 780 779 779 779 779 782 787 791 793 796 797 797 798 797 795 795 794 793 793 792 792 792 792 793 794 795 797 797 798 799 801 802 803 802 802 802 803 803 804 804 805 806 807 809 810 811 811 811 812 812
733 729 730 733 739 738 731 729 732 738 747 751 749 745 744 748 751 750 753 757 758 760 763 764 769 775 774 773 778 782 782 781 783 785 787 788 788 790 790 789 789 792 796 798 800 802 804 805 805 804 803 802 801 800 799 798 797 797 796 797 797 797 798 799 799 801 802 803 803 803 803 804 804 805 805 805 806 807 807 808 810 811 811 811 811 811
741 736 736 735 740 745 740 734 737 746 758 760 751 743 740 742 748 752 757 760 759 758 759 761 766 770 772 776 784 790 792 793 793 793 792 793 794 796 797 797 799 801 803 805 807 808 810 810 810 810 809 808 808 806 805 804 803 802 801 800 800 800 800 801 802 803 804 804 805 804 804 805 805 806 807 807 807 807 807 808 809 810 812 813 812 812
746 747 745 738 741 746 745 746 754 761 763 760 752 743 738 738 743 752 757 756 756 759 761 763 766 768 772 781 788 792 796 798 799 799 799 799 799 800 802 804 806 807 810 812 812 814 815 815 815 814 813 813 812 811 810 809 808 807 806 805 805 804 803 805 806 807 808 808 807 807 807 807 807 807 807 807 808 808 808 808 809 810 812 813 813 813
739 743 741 739 743 748 748 753 765 770 767 762 755 749 746 746 749 756 762 760 756 758 761 763 767 770 777 787 792 794 798 799 800 804 805 805 804 804 805 808 810 812 815 816 817 818 818 818 819 818 817 817 816 814 814 813 812 812 811 810 809 809 808 809 810 811 812 811 811 810 810 810 810 809 809 808 808 808 808 808 809 809 810 810 811 811
728 735 740 743 747 749 751 757 764 770 771 767 762 758 758 761 760 759 764 766 759 756 761 766 771 777 784 790 793 794 795 797 803 809 809 808 808 807 808 810 812 815 817 818 819 819 819 820 821 820 820 819 818 818 817 816 816 815 814 814 813 813 813 813 814 815 815 815 814 814 813 813 812 811 810 809 809 809 808 808 808 809 809 809 809 809
723 732 740 745 746 746 750 758 764 769 775 775 771 765 760 762 761 756 763 771 765 759 765 772 777 783 788 791 793 793 792 798 807 812 811 810 810 809 810 813 815 816 818 819 819 820 820 821 820 821 821 820 820 820 819 819 818 817 816 817 816 816 816 816 816 817 818 817 817 816 815 815 814 812 811 810 810 810 809 809 809 809 808 808 808 808
722 727 734 739 743 745 749 757 764 772 780 780 777 770 762 761 761 758 767 778 773 765 770 775 779 786 790 791 793 792 794 803 809 809 809 810 810 811 813 815 816 818 819 819 820 820 820 820 820 821 821 821 821 821 820 820 819 818 818 818 818 818 818 818 818 818 818 818 817 816 816 815 814 813 812 811 811 811 811 810 810 809 808 807 807 807
727 728 734 739 744 745 747 756 768 778 781 778 774 772 768 764 763 765 775 783 776 769 771 774 778 784 787 789 792 791 793 800 804 804 806 808 810 812 813 814 816 818 819 820 820 820 820 820 820 821 822 822 822 821 821 821 820 819 819 819 819 819 818 819 819 819 818 818 817 816 816 816 815 814 813 812 812 811 811 811 810 809 808 806 806 805
738 735 737 739 744 746 748 761 778 785 783 779 774 772 771 768 768 774 781 781 774 770 773 776 779 783 784 787 791 791 792 797 800 804 807 809 811 813 814 815 817 818 819 821 821 821 821 820 821 821 822 822 822 822 822 822 821 821 820 820 820 819 819 819 819 819 819 818 818 818 817 816 815 814 813 812 812 811 811 811 810 809 807 806 805 804
750 747 745 745 749 748 746 760 781 790 788 783 777 771 768 772 778 781 779 775 772 773 779 783 786 788 789 791 794 795 797 799 801 805 808 810 812 814 815 816 817 819 820 821 821 821 821 821 821 822 822 822 822 822 822 822 822 822 821 821 821 821 821 820 820 820 819 818 818 817 816 815 815 814 813 812 812 811 810 809 808 807 806 805 804 803
756 757 757 761 763 756 753 766 784 793 790 781 775 773 771 774 780 780 776 776 776 777 782 787 790 792 795 797 799 800 801 803 805 808 810 813 814 815 816 817 818 819 820 820 820 821 821 821 821 822 822 823 823 823 822 822 822 822 822 822 822 821 821 821 820 820 819 818 818 817 816 815 814 813 813 812 811 810 808 807 807 806 804 804 802 801
758 760 762 768 768 764 770 783 790 790 786 779 778 781 779 777 780 780 779 782 783 782 785 791 793 795 797 800 803 805 807 809 811 812 814 816 817 817 818 819 819 820 820 820 821 821 821 821 822 822 822 823 823 823 823 823 823 822 822 822 821 821 821 820 820 820 819 818 818 816 816 815 814 813 812 810 810 808 807 805 805 803 802 801 800 799
763 763 765 770 771 770 778 786 786 784 783 782 783 784 782 782 786 786 787 789 789 789 792 797 798 799 799 802 805 807 809 812 814 815 816 817 818 819 819 820 820 821 821 822 822 823 822 822 822 823 823 823 823 823 823 822 823 822 822 821 821 821 821 820 820 819 819 818 817 816 815 814 813 812 811 810 809 807 805 804 803 801 800 799 798 797
762 761 762 769 774 777 780 783 783 784 785 785 786 787 786 788 791 792 794 796 796 797 799 802 804 805 805 806 808 810 812 814 815 816 817 817 819 819 820 820 821 822 822 822 823 823 823 823 823 823 823 823 823 823 822 823 823 822 821 821 821 821 820 820 819 819 818 817 816 815 815 814 812 811 810 809 808 806 804 803 801 799 798 797 796 795
763 762 764 771 777 780 785 787 787 788 790 789 790 791 791 792 795 796 799 802 802 803 805 806 808 809 810 810 811 813 815 816 816 817 817 818 819 819 820 821 822 822 823 823 823 824 823 823 823 822 822 823 822 822 822 823 822 822 821 821 821 820 820 819 818 818 817 816 815 815 814 813 811 810 809 808 807 805 804 802 800 799 797 796 795 794
766 764 766 773 778 780 785 788 788 789 791 791 792 794 795 797 799 800 802 804 805 806 808 810 811 812 813 814 815 815 817 818 818 817 817 817 818 819 820 822 822 823 823 823 823 824 823 822 822 822 823 823 823 823 823 823 822 822 822 821 821 820 819 819 818 817 817 816 815 814 813 812 811 810 808 807 805 804 802 801 800 798 796 795 794 792
768 767 767 774 782 786 787 788 788 791 793 793 794 797 798 800 802 803 804 805 807 808 810 811 812 813 815 816 816 816 816 818 818 818 817 817 818 820 822 823 823 823 823 824 823 823 822 822 823 824 824 823 823 823 823 823 823 823 822 822 821 820 819 819 818 817 817 816 815 814 813 812 811 809 808 806 804 803 801 800 799 797 795 793 792 791
773 775 773 775 783 789 789 789 790 793 797 798 797 798 800 800 801 803 803 804 806 808 809 810 812 813 814 815 817 817 817 817 818 819 819 818 819 821 822 823 823 824 823 823 823 821 821 823 824 824 824 824 824 824 824 823 823 823 822 822 821 821 820 819 818 817 816 815 814 813 812 811 810 809 808 806 804 802 799 797 796 795 793 792 790 789
779 782 780 780 784 787 789 790 789 791 795 797 796 797 799 799 800 801 802 803 805 806 808 809 811 812 813 814 816 817 817 818 819 819 819 819 820 821 822 823 824 824 823 823 822 821 821 823 824 824 824 824 824 824 824 823 823 823 822 822 821 820 820 819 818 817 816 814 813 812 811 810 809 808 807 805 804 802 799 796 794 792 791 790 788 787